Sunlight Mountain, CO

6:02 AM MDT on July 22, 2017 (GMT -0600)
Sunlight Mountain

Weather History for K5SM - October, 2013

Change the Weather History Date:

Thursday, October 10, 2013

  Actual Average (KRIL) Record (KRIL)
Temperature  
Mean Temperature 34 °F -  
Max Temperature 37 °F 70 °F 88 °F (1910)
Min Temperature 30 °F 33 °F 23 °F (1922)
Degree Days  
Heating Degree Days 32    
Moisture  
Dew Point 31 °F    
Average Humidity 95    
Maximum Humidity 100    
Minimum Humidity 65    
Precipitation  
Precipitation 0.00 in - - ()
Sea Level Pressure  
Sea Level Pressure 29.93 in    
Wind  
Wind Speed 2 mph (SSE)    
Max Wind Speed 7 mph    
Max Gust Speed -    
Visibility 5 miles    
Events Snow    
Averages and records for this station are not official NWS values.
T = Trace of Precipitation, MM = Missing Value Source: NWS Daily Summary

Daily Weather History Graph

Daily Weather History Graph

Search for Another Location

Airport or City:

Trip Planner

Search our weather history database for the weather conditions in past years. The results will help you decide how hot, cold, wet, or windy it might be!

Date:

Astronomy

Oct. 10, 2013 Rise Set
Actual Time 7:14 AM MDT 6:37 PM MDT
Civil Twilight 6:47 AM MDT 7:04 PM MDT
Nautical Twilight 6:16 AM MDT 7:35 PM MDT
Astronomical Twilight 5:45 AM MDT 8:06 PM MDT
Moon 1:07 PM MDT (10/10) 11:19 PM MDT (10/10)
Length of Visible Light 12h 16m
Length of Day
11h 22m
Waxing Crescent, 36% of the Moon is Illuminated
Oct 10
Waxing Crescent
Oct 11
First Quarter
Oct 18
Full
Oct 26
Last Quarter
Nov 3
New

Hourly Weather History & Observations

Time (MDT) Temp. Windchill Dew Point Humidity Pressure Visibility Wind Dir Wind Speed Gust Speed Precip Events Conditions
12:06 AM 37.4 °F - 28.4 °F 70% 30.10 in 10.0 mi Calm Calm - N/A   Scattered Clouds
12:25 AM 37.4 °F - 26.6 °F 65% 30.10 in 10.0 mi Calm Calm - N/A   Scattered Clouds
12:46 AM 37.4 °F - 28.4 °F 70% 30.11 in 10.0 mi Calm Calm - N/A   Overcast
1:06 AM 35.6 °F - 32.0 °F 87% 30.11 in 5.0 mi Calm Calm - N/A Snow Light Snow
1:25 AM 35.6 °F 32.8 °F 32.0 °F 87% 30.10 in 7.0 mi ESE 3.5 mph - N/A Snow Light Snow
1:46 AM 33.8 °F 29.6 °F 32.0 °F 93% 30.10 in 10.0 mi ENE 4.6 mph - N/A   Scattered Clouds
2:06 AM 33.8 °F 28.6 °F 32.0 °F 93% 30.08 in 10.0 mi East 5.8 mph - N/A   Mostly Cloudy
2:26 AM 35.6 °F 31.7 °F 32.0 °F 87% 30.07 in 10.0 mi East 4.6 mph - N/A   Overcast
2:45 AM 35.6 °F 32.8 °F 32.0 °F 87% 30.06 in 10.0 mi East 3.5 mph - N/A   Overcast
3:06 AM 35.6 °F 31.7 °F 32.0 °F 87% 30.05 in 1.5 mi East 4.6 mph - N/A Snow Light Snow
3:25 AM 33.8 °F 30.8 °F 32.0 °F 93% 30.04 in 10.0 mi SE 3.5 mph - N/A   Overcast
3:47 AM 35.6 °F - 32.0 °F 87% 30.03 in 2.5 mi Calm Calm - N/A Snow Light Snow
4:07 AM 33.8 °F - 33.8 °F 100% 30.02 in 3.0 mi Calm Calm - N/A Snow Light Snow
4:27 AM 33.8 °F 29.6 °F 33.8 °F 100% 30.02 in 10.0 mi SE 4.6 mph - N/A   Overcast
4:46 AM 33.8 °F - 33.8 °F 100% 30.02 in 3.0 mi Calm Calm - N/A Snow Light Snow
5:07 AM 33.8 °F - 33.8 °F 100% 30.02 in 1.0 mi Calm Calm - N/A Snow Light Snow
5:27 AM 33.8 °F - 33.8 °F 100% 30.02 in 1.0 mi Calm Calm - N/A Snow Light Snow
5:47 AM 33.8 °F 29.6 °F 33.8 °F 100% 30.01 in 2.5 mi SE 4.6 mph - N/A Snow Light Snow
6:07 AM 33.8 °F 29.6 °F 33.8 °F 100% 29.99 in 1.5 mi SE 4.6 mph - N/A Snow Light Snow
6:27 AM 33.8 °F 28.6 °F 33.8 °F 100% 29.97 in 5.0 mi ESE 5.8 mph - N/A   Overcast
6:46 AM 33.8 °F 27.7 °F 33.8 °F 100% 29.95 in 10.0 mi SE 6.9 mph - N/A   Mostly Cloudy
7:06 AM 33.8 °F 28.6 °F 33.8 °F 100% 29.94 in 10.0 mi ESE 5.8 mph - N/A   Clear
7:26 AM 33.8 °F 29.6 °F 33.8 °F 100% 29.94 in 10.0 mi SSE 4.6 mph - N/A   Mostly Cloudy
7:47 AM 33.8 °F - 33.8 °F 100% 29.95 in 1.5 mi Calm Calm - N/A Snow Light Snow
8:07 AM 33.8 °F - 33.8 °F 100% 29.95 in 4.0 mi Calm Calm - N/A Snow Light Snow
8:27 AM 33.8 °F - 33.8 °F 100% 29.94 in 10.0 mi Calm Calm - N/A   Mostly Cloudy
8:46 AM 33.8 °F - 33.8 °F 100% 29.94 in 10.0 mi Calm Calm - N/A   Mostly Cloudy
9:07 AM 35.6 °F - 33.8 °F 93% 29.94 in 4.0 mi Calm Calm - N/A Snow Light Snow
9:25 AM 33.8 °F - 33.8 °F 100% 29.93 in 0.8 mi Calm Calm - N/A Snow Light Snow
9:46 AM 33.8 °F - 33.8 °F 100% 29.93 in 0.2 mi Calm Calm - N/A Snow Snow
10:07 AM 33.8 °F - 33.8 °F 100% 29.91 in 0.2 mi Calm Calm - N/A Snow Snow
10:27 AM 33.8 °F - 33.8 °F 100% 29.91 in 0.5 mi Calm Calm - N/A Snow Light Snow
10:47 AM 33.8 °F - 33.8 °F 100% 29.90 in 0.5 mi Calm Calm - N/A Snow Snow
11:06 AM 33.8 °F - 33.8 °F 100% 29.90 in 0.2 mi Calm Calm - N/A Snow Snow
11:27 AM 33.8 °F - 33.8 °F 100% 29.90 in 0.5 mi Calm Calm - N/A Snow Snow
11:47 AM 33.8 °F - 33.8 °F 100% 29.90 in 0.2 mi Calm Calm - N/A Snow Heavy Snow
12:07 PM 32.0 °F - 32.0 °F 100% 29.88 in 0.2 mi Calm Calm - N/A Snow Heavy Snow
12:27 PM 32.0 °F 27.5 °F 32.0 °F 100% 29.86 in 0.2 mi SSW 4.6 mph - N/A Snow Heavy Snow
12:47 PM 32.0 °F 28.7 °F 32.0 °F 100% 29.86 in 0.2 mi SSW 3.5 mph - N/A Snow Heavy Snow
1:07 PM 32.0 °F 28.7 °F 32.0 °F 100% 29.88 in 0.2 mi SSW 3.5 mph - N/A Snow Heavy Snow
1:27 PM 32.0 °F - 32.0 °F 100% 29.90 in 0.5 mi Calm Calm - N/A Snow Light Snow
1:47 PM 32.0 °F - 32.0 °F 100% 29.89 in 3.0 mi Calm Calm - N/A Snow Light Snow
2:07 PM 32.0 °F - 32.0 °F 100% 29.88 in 7.0 mi Calm Calm - N/A   Overcast
2:27 PM 32.0 °F - 32.0 °F 100% 29.89 in 1.2 mi Calm Calm - N/A Snow Light Snow
2:47 PM 32.0 °F - 30.2 °F 93% 29.89 in 7.0 mi Calm Calm - N/A   Overcast
3:07 PM 32.0 °F - 30.2 °F 93% 29.88 in 10.0 mi Calm Calm - N/A   Overcast
3:27 PM 32.0 °F - 30.2 °F 93% 29.87 in 10.0 mi Calm Calm - N/A   Overcast
3:46 PM 32.0 °F - 30.2 °F 93% 29.86 in 10.0 mi Calm Calm - N/A   Overcast
4:07 PM 32.0 °F - 30.2 °F 93% 29.85 in 10.0 mi Calm Calm - N/A   Scattered Clouds
4:26 PM 32.0 °F - 30.2 °F 93% 29.86 in 10.0 mi Calm Calm - N/A   Clear
4:47 PM 32.0 °F - 30.2 °F 93% 29.86 in 10.0 mi Calm Calm - N/A   Clear
5:07 PM 32.0 °F - 30.2 °F 93% 29.86 in 10.0 mi Calm Calm - N/A   Clear
5:27 PM 30.2 °F - 30.2 °F 100% 29.85 in 10.0 mi Calm Calm - N/A   Scattered Clouds
5:47 PM 30.2 °F - 28.4 °F 93% 29.85 in 10.0 mi Calm Calm - N/A   Scattered Clouds
6:07 PM 30.2 °F - 28.4 °F 93% 29.85 in 7.0 mi Calm Calm - N/A   Overcast
6:27 PM 30.2 °F - 28.4 °F 93% 29.86 in 10.0 mi Calm Calm - N/A   Overcast
6:47 PM 30.2 °F - 28.4 °F 93% 29.86 in 10.0 mi Calm Calm - N/A   Overcast
7:06 PM 30.2 °F - 30.2 °F 100% 29.86 in 3.0 mi Calm Calm - N/A Snow Light Snow
7:27 PM 30.2 °F - 28.4 °F 93% 29.86 in 10.0 mi Calm Calm - N/A   Overcast
7:47 PM 30.2 °F - 28.4 °F 93% 29.86 in 10.0 mi Calm Calm - N/A   Overcast
8:07 PM 30.2 °F - 28.4 °F 93% 29.86 in 7.0 mi Calm Calm - N/A   Overcast
8:27 PM 30.2 °F - 30.2 °F 100% 29.88 in 1.2 mi Calm Calm - N/A Snow Light Snow
8:47 PM 30.2 °F - 30.2 °F 100% 29.88 in 0.2 mi Calm Calm - N/A Snow Heavy Snow
9:07 PM 30.2 °F 26.7 °F 28.4 °F 93% 29.86 in 0.8 mi SSW 3.5 mph - N/A Snow Snow
9:27 PM 30.2 °F 26.7 °F 28.4 °F 93% 29.87 in 1.2 mi SW 3.5 mph - N/A Snow Light Snow
9:47 PM 30.2 °F 25.4 °F 28.4 °F 93% 29.87 in 2.5 mi SSW 4.6 mph - N/A   Overcast
10:06 PM 30.2 °F 26.7 °F 28.4 °F 93% 29.89 in 4.0 mi SW 3.5 mph - N/A   Overcast
10:27 PM 30.2 °F 26.7 °F 28.4 °F 93% 29.89 in 1.0 mi SW 3.5 mph - N/A Snow Light Snow
10:47 PM 30.2 °F 26.7 °F 28.4 °F 93% 29.89 in 2.5 mi SW 3.5 mph - N/A Snow Light Snow
11:07 PM 30.2 °F - 28.4 °F 93% 29.89 in 1.0 mi Calm Calm - N/A Snow Light Snow
11:26 PM 30.2 °F 26.7 °F 28.4 °F 93% 29.89 in 0.8 mi SW 3.5 mph - N/A Snow Snow
11:46 PM 30.2 °F 25.4 °F 28.4 °F 93% 29.90 in 1.5 mi SSW 4.6 mph - N/A Snow Light Snow